Vorticity
9 9 9 9 8 8 8 7 7 7 6 6 6 6 6 6 6 6 7 7 8 9 9 8 8 8 8 8 9 9 8 8 8 8 8 8 8 8 9 9 9 9 9 8 8 8 8 9 11 11 12 11 10 8 7 5 5 5 5 6 6 6 6 6 6 6 6 6 7
9 9 9 8 8 8 7 7 7 7 6 6 6 6 6 6 7 8 8 9 9 9 8 8 8 8 8 9 9 10 10 10 10 9 9 9 9 9 10 10 10 9 8 7 7 8 9 11 12 12 11 10 8 7 6 5 5 5 6 6 6 6 6 6 6 6 7 7 8
9 9 9 8 8 8 7 7 7 7 6 6 7 7 7 8 8 9 9 9 9 8 8 8 8 8 9 9 10 11 11 10 10 10 9 9 9 10 10 9 8 8 7 7 8 10 11 12 12 11 10 8 7 6 5 5 6 6 7 7 6 6 6 6 6 7 7 7 7
9 9 9 8 8 8 7 7 7 7 7 7 8 8 9 9 9 9 9 8 8 8 8 8 8 9 10 10 10 11 10 10 10 9 9 9 9 9 9 8 7 7 7 8 10 11 12 13 12 10 8 7 6 5 5 6 7 7 7 7 6 6 6 6 6 6 6 7 7
9 8 8 8 8 7 7 7 7 8 8 8 9 9 9 9 9 9 8 8 8 8 8 9 9 10 10 11 10 10 10 9 9 9 9 9 9 9 8 7 7 8 8 10 12 13 13 12 10 9 7 5 5 5 6 7 7 7 7 7 6 6 6 6 6 6 6 6 6
8 8 8 7 7 8 8 8 8 8 9 9 9 10 9 9 9 8 8 8 8 8 9 9 10 10 10 11 10 9 9 9 9 9 9 9 9 8 8 7 8 9 10 12 13 13 12 11 9 7 6 5 5 6 7 7 7 7 7 7 6 6 5 5 5 5 5 5 6
7 7 7 8 8 8 8 9 9 9 9 9 9 9 9 8 8 8 8 8 8 9 9 10 10 10 10 10 9 9 9 9 9 9 9 9 8 7 7 8 9 10 12 13 13 12 11 9 7 6 5 5 6 7 7 7 7 7 7 7 6 5 4 4 4 4 5 5 6
7 7 8 8 8 9 9 9 9 9 9 9 8 8 8 8 8 8 9 9 10 10 10 11 11 10 10 9 9 9 9 9 9 9 9 8 7 7 8 9 10 12 13 14 13 11 9 7 6 5 5 5 6 7 7 7 7 7 6 6 5 4 4 3 4 5 5 6 6
8 8 8 9 9 9 9 9 9 9 8 8 8 8 8 8 9 9 10 10 10 10 10 11 10 10 9 9 9 9 9 9 9 8 8 7 7 8 9 10 12 13 14 13 11 9 7 6 4 4 4 5 6 6 7 7 7 6 6 5 4 3 3 4 4 5 6 6 7
9 9 9 9 9 9 9 9 8 8 8 8 8 8 9 9 10 10 10 10 10 11 11 10 10 9 9 9 9 9 9 9 8 7 7 7 8 9 10 12 13 14 13 12 10 8 6 4 4 4 4 5 5 6 6 6 6 5 5 4 3 3 3 5 6 6 7 8 8
9 9 10 9 9 9 9 9 8 8 8 9 9 9 9 10 10 11 11 11 11 11 10 10 10 9 9 9 9 9 8 8 7 7 7 8 9 10 12 13 14 14 13 11 9 7 5 4 3 3 4 5 5 5 5 5 5 4 4 3 3 4 5 6 7 8 8 8 8
10 10 9 9 9 9 9 8 8 9 9 9 9 9 10 10 11 11 10 11 10 10 10 9 10 9 9 9 9 8 7 7 7 7 8 9 10 12 13 14 14 13 12 10 8 6 4 3 3 3 3 4 4 5 5 5 4 4 4 3 4 5 6 7 8 8 9 9 9
9 9 9 9 9 9 9 9 9 9 9 10 10 10 10 11 11 11 10 10 10 10 9 9 9 9 9 8 8 7 7 7 7 8 9 10 12 13 14 15 14 13 11 8 6 4 3 2 2 3 3 4 4 4 4 4 4 4 4 4 6 7 8 8 9 9 9 9 10
9 9 9 9 9 9 9 9 10 10 10 10 11 11 11 11 11 10 10 10 10 9 9 9 9 8 8 7 7 7 7 8 9 10 11 12 13 14 15 15 14 12 10 7 5 3 2 2 2 2 3 3 4 4 4 5 5 5 5 6 7 8 9 9 9 9 9 10 10
9 9 9 9 9 10 10 10 11 11 11 11 11 11 11 11 10 10 10 10 9 9 9 8 8 8 7 7 7 8 8 9 10 11 12 13 14 15 15 15 13 11 8 6 4 2 1 1 1 2 2 3 3 4 4 5 5 6 7 8 9 9 10 10 10 10 10 10 9
10 10 10 10 10 11 11 11 11 11 11 11 11 11 11 10 10 10 9 9 9 8 8 8 7 7 7 8 8 9 10 11 11 12 13 13 14 15 15 14 12 10 7 5 3 2 1 1 1 2 2 3 3 4 5 5 6 7 8 9 10 10 10 10 10 10 10 9 9
10 10 10 11 11 11 11 11 11 11 11 11 11 10 10 10 9 9 9 8 8 7 7 7 7 8 8 9 10 10 11 12 12 12 13 13 14 15 14 13 11 9 6 4 2 1 1 1 2 2 2 3 4 4 5 6 7 8 9 10 10 11 11 10 10 10 9 9 9
11 11 11 11 11 11 11 11 11 11 11 10 10 10 9 9 8 8 8 7 7 7 7 8 8 9 9 10 11 11 12 12 12 12 13 14 14 14 14 12 10 8 5 3 2 2 2 2 2 3 3 4 4 5 6 7 8 9 10 10 11 11 10 10 10 9 9 9 9
11 11 11 12 12 11 11 11 10 10 10 9 9 8 8 8 7 7 7 7 7 7 8 8 9 10 10 11 11 12 12 12 11 12 13 14 14 14 13 11 9 7 4 3 2 2 3 3 3 3 4 4 5 6 7 8 9 10 10 11 10 10 10 9 9 8 8 8 9
12 12 12 12 11 11 11 10 10 9 9 8 8 8 7 7 7 7 7 8 8 8 9 10 10 11 11 12 12 12 11 11 11 12 13 14 15 14 13 10 8 6 4 3 3 3 4 4 4 5 5 6 6 7 9 10 10 11 11 11 10 9 9 8 8 8 8 8 9
12 12 11 11 11 10 10 9 9 8 8 8 7 7 7 7 8 8 8 9 9 10 11 11 12 12 12 12 12 11 11 11 11 12 14 15 15 13 12 9 7 6 5 4 5 5 5 5 5 6 6 7 8 9 10 11 11 11 10 10 9 8 8 7 7 8 8 9 10
11 11 11 10 10 9 9 9 8 8 8 8 8 8 8 8 9 9 10 10 11 11 12 12 12 12 12 12 11 10 10 11 12 13 14 15 14 13 11 8 7 6 6 6 6 6 7 7 7 7 8 9 10 10 11 11 11 10 9 8 8 7 7 7 7 8 9 10 11
10 10 10 9 9 9 8 8 8 8 8 8 8 8 9 10 10 10 11 11 12 12 12 12 12 12 11 11 10 10 10 11 13 14 15 15 13 12 10 8 7 7 7 7 8 8 8 8 8 9 9 10 11 11 12 11 10 9 8 7 7 7 7 7 8 9 10 11 13
9 9 8 8 8 8 8 8 8 8 8 9 9 10 10 11 11 11 12 12 12 12 12 12 12 11 11 10 10 11 12 13 14 15 15 14 13 11 9 8 8 9 9 10 10 10 9 9 9 10 11 12 12 12 11 10 9 7 7 6 6 7 7 8 9 10 11 13 15
8 8 8 7 7 7 8 8 8 9 9 10 11 11 11 12 12 11 11 11 11 11 11 11 11 11 11 11 11 12 13 15 15 15 15 13 12 11 10 10 10 11 11 11 11 10 10 10 10 11 12 12 12 11 10 8 7 6 6 6 6 7 8 9 10 12 14 16 17
7 7 7 7 8 8 9 10 10 11 11 12 12 12 12 12 11 11 11 11 11 11 11 11 11 11 12 12 13 15 16 16 16 15 14 13 12 12 12 12 13 12 11 10 10 10 10 11 12 12 12 12 11 9 8 6 6 6 6 6 7 8 9 10 12 14 16 18 19
7 8 8 9 10 10 11 12 12 12 13 12 12 12 11 11 11 11 11 11 12 12 12 12 12 13 14 15 16 17 17 17 16 15 14 14 14 14 14 13 12 11 10 9 9 10 11 12 12 12 11 10 8 7 6 5 5 6 6 7 8 10 11 13 14 15 17 18 19
9 10 11 12 12 13 13 13 13 13 13 12 12 11 11 11 11 12 12 13 13 13 14 14 15 16 17 18 18 18 18 17 17 16 16 15 15 13 12 10 9 8 8 9 10 11 12 12 12 11 9 8 6 6 5 5 6 7 7 8 10 11 13 15 16 17 17 18 18
12 13 13 14 14 13 13 13 13 12 12 11 11 11 12 12 13 14 14 14 14 15 16 17 18 19 19 20 19 18 18 17 17 16 14 13 11 9 8 7 8 8 9 11 12 12 12 11 10 8 7 6 5 5 5 6 7 7 8 10 11 13 15 16 17 18 18 17 16
14 14 14 13 13 13 12 12 12 12 12 12 13 13 14 15 15 15 16 16 17 18 18 18 19 19 19 18 17 16 15 14 13 11 9 8 7 7 8 8 9 11 12 12 12 11 10 9 7 6 5 5 5 6 6 7 8 8 10 11 13 15 17 17 18 17 16 15 13
14 13 13 13 12 12 12 12 12 13 13 14 15 15 16 16 16 17 17 18 18 18 18 18 17 16 15 14 13 12 10 9 8 8 7 7 8 9 10 11 12 12 12 12 10 9 7 6 5 5 5 5 6 6 7 8 9 10 11 13 15 16 17 17 17 16 14 13 11
13 13 12 12 12 13 13 13 14 15 15 16 16 16 16 16 17 17 17 17 17 16 15 14 13 12 11 10 9 9 8 8 8 9 9 10 11 11 12 13 13 12 11 9 8 6 5 5 5 5 6 6 7 7 8 9 10 12 13 15 16 17 17 16 15 14 12 11 9
12 12 12 12 13 13 14 15 16 16 16 16 15 15 15 16 16 17 17 16 15 13 11 10 10 9 9 9 9 10 10 10 11 11 12 12 12 13 13 12 11 10 8 6 6 5 5 5 6 6 6 7 7 8 9 10 12 13 15 17 17 17 16 15 14 12 11 9 8
12 12 12 13 13 14 15 16 16 15 15 14 14 14 15 15 16 16 15 14 12 11 10 9 9 10 10 10 11 11 11 12 12 12 13 13 13 12 11 10 8 7 6 5 5 5 5 6 6 7 7 7 8 9 10 12 13 15 16 17 16 16 15 14 12 11 9 8 8
12 12 12 12 13 13 14 14 14 14 14 14 14 14 14 14 14 14 13 12 11 10 10 10 10 11 11 12 12 12 12 12 13 13 13 13 11 10 9 7 6 5 5 5 5 6 6 7 7 7 8 8 9 10 12 13 15 16 16 16 15 15 14 12 11 10 9 8 8
11 11 10 10 10 10 11 12 13 14 14 14 14 13 13 13 12 12 11 10 10 10 10 10 10 11 12 12 13 13 13 13 13 12 12 11 9 8 6 5 5 5 5 6 6 6 7 7 7 8 8 9 10 12 13 15 15 16 15 15 14 13 12 11 10 9 8 8 8
9 9 8 7 7 8 8 9 11 12 13 14 14 13 12 11 11 10 9 8 8 8 8 9 10 11 12 12 12 13 13 12 12 11 10 8 7 6 5 5 5 6 6 6 7 7 7 7 8 8 9 10 11 13 14 15 15 15 15 14 13 12 11 10 9 9 8 8 8
8 7 7 6 6 7 7 8 10 11 12 13 12 12 11 10 9 9 8 7 7 8 8 9 11 12 12 12 12 12 12 11 10 9 8 7 6 5 5 5 6 6 7 7 7 7 7 7 8 9 10 11 12 13 14 15 15 15 14 13 12 11 10 10 9 8 8 8 8
7 7 7 7 7 8 8 9 10 11 11 11 11 11 11 10 10 9 8 8 9 9 10 11 12 12 12 12 12 11 11 10 9 8 6 6 5 5 5 6 6 7 7 7 7 7 7 8 8 9 11 12 13 14 14 15 15 14 13 12 11 11 10 9 9 8 8 8 8
8 8 8 9 9 10 10 11 11 11 11 11 11 11 11 11 10 10 9 10 10 11 11 12 12 12 12 11 11 10 9 9 8 7 6 5 5 6 6 7 7 7 7 7 7 7 7 8 9 10 12 13 14 14 15 15 14 13 12 12 11 10 9 9 9 8 8 8 8
9 9 10 10 11 11 11 12 12 12 12 12 12 12 11 11 11 11 11 11 12 12 12 12 12 11 11 11 10 9 9 8 7 6 6 6 6 6 7 7 7 7 6 6 6 7 8 8 10 11 12 14 14 15 14 14 13 13 12 11 10 10 9 9 9 8 8 8 8
Height
5773 5773 5773 5773 5773 5773 5773 5773 5773 5774 5774 5774 5774 5774 5774 5774 5774 5774 5774 5774 5773 5773 5773 5773 5773 5772 5772 5771 5771 5770 5769 5768 5768 5767 5767 5767 5766 5766 5765 5764 5764 5763 5762 5761 5760 5759 5758 5758 5757 5756 5755 5754 5753 5752 5751 5750 5749 5748 5746 5745 5743 5742 5741 5739 5738 5737 5735 5733 5731
5770 5771 5771 5771 5771 5771 5771 5771 5771 5771 5771 5771 5771 5771 5771 5771 5771 5771 5771 5771 5771 5770 5770 5770 5769 5769 5769 5768 5768 5767 5767 5766 5765 5765 5764 5764 5763 5763 5763 5762 5761 5760 5759 5758 5758 5757 5755 5754 5754 5753 5752 5751 5750 5749 5748 5747 5746 5744 5743 5742 5740 5739 5738 5736 5734 5733 5731 5729 5728
5768 5768 5768 5768 5768 5768 5768 5768 5768 5768 5768 5768 5768 5768 5768 5768 5768 5768 5768 5768 5768 5767 5767 5767 5767 5766 5766 5765 5765 5764 5764 5763 5763 5762 5762 5761 5761 5760 5760 5759 5758 5757 5756 5755 5754 5754 5753 5752 5751 5750 5749 5748 5747 5746 5745 5744 5743 5742 5740 5738 5737 5736 5734 5733 5731 5730 5728 5726 5725
5765 5765 5765 5765 5765 5765 5765 5765 5765 5765 5765 5765 5765 5765 5765 5765 5765 5765 5765 5765 5765 5764 5764 5764 5764 5763 5763 5763 5762 5762 5761 5761 5760 5759 5759 5758 5758 5758 5757 5756 5755 5754 5753 5753 5752 5751 5750 5749 5748 5747 5746 5745 5744 5743 5742 5741 5740 5738 5737 5736 5734 5733 5732 5730 5728 5727 5725 5723 5722
5763 5763 5763 5763 5762 5762 5763 5763 5763 5762 5762 5762 5762 5762 5762 5762 5762 5762 5762 5762 5762 5762 5762 5761 5761 5761 5761 5760 5760 5759 5758 5758 5758 5757 5756 5756 5755 5754 5754 5753 5752 5751 5750 5749 5749 5748 5747 5746 5745 5744 5743 5743 5742 5740 5739 5738 5737 5735 5734 5733 5732 5730 5729 5727 5726 5724 5722 5721 5719
5759 5759 5759 5759 5759 5759 5759 5759 5759 5759 5759 5759 5759 5759 5759 5759 5759 5759 5759 5759 5759 5759 5758 5758 5758 5758 5758 5757 5757 5756 5756 5755 5755 5754 5753 5753 5752 5751 5751 5750 5749 5748 5747 5747 5746 5745 5744 5743 5742 5741 5741 5740 5739 5738 5736 5735 5734 5733 5731 5730 5729 5728 5726 5724 5723 5721 5719 5718 5716
5756 5756 5756 5756 5756 5756 5756 5756 5756 5756 5756 5756 5756 5756 5756 5756 5756 5756 5756 5756 5756 5756 5756 5755 5755 5755 5755 5754 5754 5753 5753 5753 5752 5751 5750 5750 5749 5748 5748 5747 5746 5745 5744 5743 5743 5742 5741 5740 5739 5739 5738 5737 5736 5735 5733 5733 5731 5730 5729 5728 5726 5725 5723 5722 5720 5718 5717 5715 5713
5753 5753 5753 5753 5753 5753 5753 5753 5753 5753 5753 5753 5753 5753 5753 5753 5753 5753 5753 5753 5753 5753 5753 5752 5752 5752 5752 5751 5751 5750 5750 5749 5749 5748 5748 5747 5746 5745 5744 5744 5743 5742 5741 5741 5740 5739 5738 5738 5737 5736 5735 5734 5733 5732 5731 5730 5728 5728 5726 5725 5723 5722 5721 5719 5717 5715 5713 5712 5710
5750 5750 5750 5750 5750 5750 5750 5750 5750 5751 5751 5751 5751 5751 5751 5750 5750 5750 5750 5750 5750 5750 5749 5749 5749 5748 5748 5748 5748 5747 5747 5746 5746 5745 5744 5744 5743 5742 5742 5741 5740 5739 5738 5738 5737 5736 5736 5735 5734 5733 5733 5732 5730 5729 5728 5727 5726 5725 5724 5723 5721 5719 5718 5716 5714 5712 5710 5709 5707
5748 5748 5748 5748 5748 5748 5748 5748 5748 5748 5748 5748 5748 5748 5748 5748 5747 5747 5747 5747 5747 5746 5746 5746 5746 5746 5745 5745 5744 5744 5743 5743 5743 5742 5741 5741 5740 5739 5739 5738 5737 5737 5736 5735 5734 5734 5733 5733 5732 5731 5730 5729 5728 5727 5726 5724 5723 5722 5721 5720 5718 5717 5715 5713 5711 5709 5708 5706 5704
5745 5745 5745 5745 5745 5745 5745 5745 5745 5745 5745 5745 5745 5744 5744 5744 5744 5744 5744 5744 5743 5743 5743 5743 5743 5743 5742 5742 5742 5741 5741 5740 5739 5739 5738 5738 5737 5736 5736 5735 5734 5734 5733 5732 5732 5731 5730 5730 5729 5728 5727 5726 5725 5724 5723 5722 5721 5719 5718 5717 5715 5714 5712 5710 5708 5707 5705 5703 5701
5742 5742 5742 5742 5742 5742 5742 5742 5742 5742 5742 5742 5742 5742 5742 5741 5741 5741 5741 5741 5741 5740 5740 5740 5740 5739 5739 5739 5738 5738 5738 5737 5737 5736 5735 5735 5734 5733 5733 5732 5731 5731 5730 5730 5729 5728 5728 5727 5726 5726 5724 5723 5723 5722 5720 5719 5718 5717 5716 5714 5713 5711 5709 5708 5706 5704 5702 5700 5698
5739 5739 5739 5739 5739 5739 5739 5739 5739 5739 5739 5739 5739 5739 5738 5738 5738 5738 5738 5738 5738 5738 5738 5737 5737 5737 5736 5736 5736 5735 5735 5734 5733 5733 5733 5732 5731 5731 5730 5729 5728 5728 5728 5727 5726 5726 5725 5724 5724 5723 5722 5721 5720 5719 5718 5717 5715 5714 5713 5711 5710 5708 5707 5705 5703 5701 5699 5697 5695
5736 5736 5736 5737 5737 5737 5736 5736 5736 5736 5736 5736 5736 5736 5736 5736 5736 5736 5736 5735 5735 5735 5735 5734 5734 5734 5733 5733 5733 5732 5732 5731 5731 5730 5729 5729 5728 5728 5727 5726 5726 5725 5725 5724 5724 5723 5723 5722 5721 5720 5719 5718 5717 5716 5715 5714 5713 5711 5710 5708 5707 5706 5704 5702 5700 5698 5697 5695 5693
5733 5733 5734 5734 5734 5734 5734 5734 5733 5733 5733 5733 5733 5733 5733 5733 5733 5733 5733 5733 5732 5732 5732 5732 5731 5731 5730 5730 5729 5729 5728 5728 5728 5727 5727 5726 5725 5725 5724 5723 5723 5723 5722 5722 5721 5721 5720 5719 5718 5718 5717 5716 5714 5713 5712 5711 5710 5708 5707 5706 5704 5703 5701 5699 5697 5696 5694 5692 5690
5731 5731 5731 5731 5731 5731 5731 5731 5731 5731 5731 5731 5730 5730 5730 5730 5730 5730 5730 5730 5729 5729 5729 5728 5728 5728 5727 5727 5726 5726 5725 5725 5724 5724 5723 5723 5723 5722 5721 5721 5720 5720 5719 5719 5718 5718 5717 5717 5716 5715 5714 5713 5712 5711 5709 5708 5707 5706 5704 5703 5701 5700 5698 5696 5694 5693 5691 5689 5688
5728 5728 5728 5728 5728 5728 5728 5728 5728 5728 5728 5728 5728 5728 5728 5728 5728 5727 5727 5727 5727 5726 5726 5725 5725 5725 5724 5723 5723 5723 5722 5722 5721 5721 5720 5720 5719 5719 5718 5718 5718 5717 5717 5716 5716 5715 5714 5714 5713 5712 5711 5710 5709 5708 5707 5706 5704 5703 5702 5700 5698 5697 5695 5693 5692 5690 5688 5687 5685
5725 5725 5725 5726 5726 5726 5726 5726 5726 5726 5726 5726 5725 5725 5725 5725 5725 5724 5724 5724 5724 5723 5723 5723 5722 5722 5721 5720 5720 5719 5719 5719 5718 5718 5717 5717 5716 5716 5715 5715 5715 5714 5714 5713 5713 5713 5712 5711 5710 5709 5708 5707 5706 5705 5704 5703 5702 5700 5699 5697 5696 5694 5693 5691 5689 5687 5686 5684 5682
5723 5723 5723 5723 5723 5723 5723 5723 5723 5723 5723 5723 5723 5723 5722 5722 5722 5722 5721 5721 5721 5720 5720 5719 5719 5718 5718 5718 5717 5717 5716 5716 5715 5715 5714 5714 5713 5713 5713 5712 5712 5712 5711 5711 5710 5710 5709 5708 5708 5707 5706 5705 5703 5703 5701 5700 5699 5697 5696 5694 5693 5691 5690 5688 5686 5684 5683 5681 5679
5720 5720 5720 5720 5720 5720 5720 5721 5720 5720 5720 5720 5720 5720 5719 5719 5719 5719 5718 5718 5718 5718 5717 5717 5716 5716 5715 5715 5714 5714 5713 5713 5713 5712 5711 5711 5711 5710 5710 5710 5709 5709 5708 5708 5708 5707 5706 5706 5705 5704 5703 5702 5701 5700 5698 5697 5696 5695 5693 5692 5690 5689 5687 5685 5683 5682 5680 5678 5677
5717 5718 5718 5718 5718 5718 5718 5718 5718 5718 5718 5717 5717 5717 5717 5716 5716 5716 5715 5715 5715 5714 5714 5713 5713 5713 5712 5712 5711 5711 5711 5710 5710 5709 5709 5708 5708 5708 5708 5707 5707 5706 5706 5706 5705 5704 5704 5703 5702 5701 5700 5699 5698 5697 5696 5695 5693 5692 5691 5689 5688 5686 5684 5683 5681 5679 5678 5676 5674
5715 5715 5715 5715 5715 5715 5715 5715 5715 5715 5715 5714 5714 5714 5714 5713 5713 5713 5713 5712 5712 5711 5711 5711 5710 5710 5709 5709 5708 5708 5708 5708 5707 5707 5706 5706 5705 5705 5705 5705 5704 5704 5703 5703 5703 5702 5701 5700 5699 5698 5698 5697 5695 5694 5693 5692 5691 5689 5688 5687 5685 5683 5682 5680 5678 5677 5675 5673 5672
5712 5712 5712 5712 5712 5712 5712 5712 5712 5712 5712 5712 5711 5711 5711 5711 5710 5710 5709 5709 5709 5708 5708 5708 5707 5707 5707 5706 5706 5705 5705 5705 5704 5704 5703 5703 5703 5703 5702 5702 5702 5701 5701 5700 5700 5699 5698 5698 5697 5696 5695 5694 5693 5692 5691 5689 5688 5687 5686 5684 5683 5681 5679 5678 5676 5674 5673 5671 5669
5709 5709 5709 5709 5709 5709 5709 5709 5709 5709 5709 5709 5708 5708 5708 5708 5707 5707 5707 5706 5706 5706 5705 5705 5704 5704 5704 5703 5703 5703 5703 5702 5702 5701 5701 5701 5700 5700 5700 5699 5699 5698 5698 5698 5697 5696 5696 5695 5694 5693 5692 5691 5690 5689 5688 5687 5686 5684 5683 5682 5680 5678 5677 5675 5673 5672 5670 5668 5666
5707 5707 5707 5707 5707 5707 5707 5707 5707 5706 5706 5706 5706 5705 5705 5705 5704 5704 5704 5703 5703 5703 5703 5702 5702 5701 5701 5701 5700 5700 5700 5699 5699 5699 5698 5698 5698 5698 5697 5697 5697 5696 5696 5695 5694 5694 5693 5692 5691 5690 5689 5688 5688 5687 5686 5684 5683 5682 5680 5679 5678 5676 5674 5673 5671 5669 5667 5666 5664
5705 5705 5704 5704 5704 5704 5704 5704 5704 5704 5703 5703 5703 5703 5702 5702 5702 5701 5701 5701 5700 5700 5700 5699 5699 5698 5698 5698 5698 5697 5697 5697 5697 5696 5696 5696 5695 5695 5695 5694 5694 5693 5693 5693 5692 5691 5690 5690 5689 5688 5687 5686 5685 5684 5683 5682 5681 5679 5678 5676 5675 5673 5672 5670 5668 5667 5665 5663 5662
5702 5702 5702 5702 5702 5702 5702 5701 5701 5701 5701 5700 5700 5700 5700 5699 5699 5699 5698 5698 5698 5697 5697 5697 5696 5696 5696 5695 5695 5695 5694 5694 5694 5694 5693 5693 5693 5693 5692 5692 5692 5691 5691 5690 5689 5689 5688 5687 5686 5685 5685 5683 5683 5682 5681 5679 5678 5677 5675 5674 5672 5671 5669 5668 5666 5664 5663 5661 5660
5700 5700 5700 5699 5699 5699 5699 5698 5698 5698 5698 5698 5698 5697 5697 5697 5696 5696 5696 5695 5695 5695 5694 5694 5693 5693 5693 5693 5693 5692 5692 5692 5692 5691 5691 5691 5691 5690 5690 5690 5689 5688 5688 5688 5687 5686 5685 5685 5684 5683 5682 5681 5680 5679 5678 5677 5676 5674 5673 5671 5670 5668 5667 5665 5663 5662 5660 5659 5658
5697 5697 5697 5697 5697 5697 5696 5696 5696 5696 5695 5695 5695 5695 5694 5694 5694 5693 5693 5693 5693 5692 5692 5692 5691 5691 5691 5690 5690 5690 5690 5690 5689 5689 5689 5689 5688 5688 5688 5687 5687 5686 5686 5685 5684 5683 5683 5682 5682 5681 5680 5679 5678 5677 5676 5674 5673 5672 5670 5668 5667 5665 5664 5663 5661 5660 5658 5657 5656
5695 5695 5694 5694 5694 5694 5694 5694 5693 5693 5693 5693 5693 5692 5692 5692 5691 5691 5691 5690 5690 5690 5689 5689 5689 5689 5688 5688 5688 5688 5688 5688 5687 5687 5687 5686 5686 5686 5685 5685 5684 5683 5683 5683 5682 5681 5681 5680 5679 5678 5678 5677 5675 5674 5673 5672 5670 5669 5667 5666 5664 5663 5662 5660 5659 5658 5656 5655 5654
5692 5692 5692 5692 5692 5692 5692 5691 5691 5691 5691 5690 5690 5690 5690 5689 5689 5689 5688 5688 5688 5688 5687 5687 5687 5687 5686 5686 5686 5686 5685 5685 5685 5685 5684 5684 5683 5683 5683 5682 5682 5681 5681 5680 5680 5679 5678 5678 5677 5676 5675 5674 5673 5672 5670 5669 5668 5666 5665 5663 5662 5661 5659 5658 5657 5656 5654 5653 5652
5690 5690 5690 5690 5690 5689 5689 5689 5689 5688 5688 5688 5688 5688 5688 5687 5687 5687 5686 5686 5686 5686 5685 5685 5685 5685 5684 5684 5684 5683 5683 5683 5683 5682 5682 5682 5681 5681 5680 5680 5679 5679 5678 5678 5678 5677 5676 5676 5675 5674 5673 5672 5670 5669 5668 5667 5665 5664 5662 5661 5660 5658 5657 5656 5655 5654 5653 5652 5650
5688 5688 5688 5688 5688 5688 5687 5687 5687 5686 5686 5686 5686 5686 5685 5685 5685 5684 5684 5684 5684 5684 5683 5683 5683 5683 5683 5682 5682 5682 5681 5681 5681 5680 5680 5679 5679 5678 5678 5678 5678 5677 5677 5676 5675 5675 5674 5673 5673 5672 5670 5669 5668 5667 5665 5664 5663 5661 5660 5659 5658 5656 5655 5654 5653 5652 5651 5650 5648
5686 5686 5686 5686 5686 5685 5685 5685 5685 5684 5684 5684 5684 5683 5683 5683 5683 5683 5682 5682 5682 5682 5681 5681 5681 5681 5680 5680 5680 5679 5679 5679 5678 5678 5678 5677 5677 5677 5676 5676 5675 5675 5674 5674 5673 5673 5672 5671 5670 5669 5668 5667 5665 5664 5663 5662 5660 5659 5658 5657 5656 5654 5653 5652 5651 5650 5649 5648 5647
5684 5684 5684 5684 5684 5683 5683 5683 5683 5683 5682 5682 5682 5682 5681 5681 5681 5681 5680 5680 5680 5680 5679 5679 5679 5679 5678 5678 5678 5678 5677 5677 5676 5676 5676 5675 5675 5675 5674 5674 5673 5673 5673 5672 5671 5670 5669 5669 5668 5667 5665 5664 5663 5662 5660 5659 5658 5657 5656 5655 5653 5653 5651 5650 5649 5648 5647 5646 5645
5682 5682 5682 5682 5682 5682 5682 5681 5681 5681 5680 5680 5680 5680 5679 5679 5679 5679 5678 5678 5678 5678 5678 5677 5677 5677 5676 5676 5676 5675 5675 5675 5674 5674 5674 5673 5673 5673 5673 5672 5672 5671 5670 5670 5669 5668 5667 5666 5665 5664 5663 5662 5661 5659 5658 5657 5656 5655 5654 5653 5652 5651 5649 5648 5647 5646 5645 5644 5643
5680 5680 5680 5680 5680 5680 5680 5679 5679 5679 5678 5678 5678 5678 5678 5677 5677 5677 5676 5676 5676 5676 5676 5675 5675 5675 5674 5674 5674 5673 5673 5673 5673 5673 5672 5672 5672 5671 5671 5670 5669 5669 5668 5668 5667 5666 5665 5664 5663 5662 5661 5659 5658 5657 5656 5655 5654 5653 5652 5651 5650 5648 5648 5646 5645 5644 5643 5642 5641
5678 5678 5678 5678 5678 5678 5678 5678 5677 5677 5677 5676 5676 5676 5675 5675 5675 5675 5674 5674 5674 5674 5674 5673 5673 5673 5673 5672 5672 5672 5671 5671 5671 5671 5670 5670 5670 5669 5669 5668 5668 5667 5666 5665 5664 5663 5663 5662 5661 5659 5658 5657 5656 5655 5654 5653 5652 5651 5650 5649 5648 5647 5646 5644 5643 5642 5641 5640 5639
5677 5677 5676 5676 5676 5676 5676 5676 5675 5675 5675 5674 5674 5674 5674 5673 5673 5673 5673 5673 5672 5672 5672 5672 5671 5671 5671 5670 5670 5670 5670 5669 5669 5669 5668 5668 5668 5667 5667 5666 5665 5665 5664 5663 5662 5661 5660 5659 5658 5657 5656 5655 5654 5653 5652 5651 5650 5649 5648 5647 5646 5645 5643 5643 5641 5640 5639 5638 5637
5675 5674 5674 5674 5674 5674 5674 5674 5673 5673 5673 5673 5673 5672 5672 5672 5671 5671 5671 5671 5670 5670 5670 5670 5669 5669 5669 5669 5668 5668 5668 5668 5667 5667 5666 5666 5665 5665 5664 5664 5663 5663 5662 5661 5660 5659 5658 5657 5656 5655 5654 5653 5652 5651 5650 5648 5648 5647 5646 5645 5644 5643 5642 5641 5639 5638 5637 5636 5635
5673 5673 5673 5673 5672 5672 5672 5672 5672 5671 5671 5671 5671 5670 5670 5670 5669 5669 5669 5669 5668 5668 5668 5668 5668 5667 5667 5667 5667 5666 5666 5666 5665 5665 5664 5664 5663 5663 5662 5662 5661 5660 5660 5659 5658 5657 5656 5655 5654 5653 5652 5651 5649 5648 5648 5647 5646 5645 5644 5643 5642 5641 5640 5638 5638 5636 5635 5634 5633